This is the latest recevied weather packets stored in our database for station/object N0LTM. If no packets are shown the sender has not sent any weather packets the latest 10 day(s).
| Time | Temp. | Humidity | Pressure | Rain* | Wind** | Luminosity | Snow |
|---|---|---|---|---|---|---|---|
| 1777467052 | 10.56° C | 90% | 1013.7 hPa | 0 mm | - | - | - |
| 1777465255 | 9.44° C | 90% | 1013.9 hPa | 0 mm | - | - | - |
| 1777462852 | 8.89° C | 89% | 1013.9 hPa | 0 mm | - | - | - |
| 1777461952 | 8.89° C | 89% | 1013.7 hPa | 0 mm | - | - | - |
| 1777460759 | 8.89° C | 87% | 1013.4 hPa | 0 mm | - | - | - |
| 1777459556 | 8.89° C | 86% | 1013.3 hPa | 0.25 mm | - | - | - |
| 1777458052 | 9.44° C | 83% | 1013.3 hPa | 0.25 mm | - | - | - |
| 1777457152 | 9.44° C | 80% | 1013.4 hPa | 0.25 mm | - | - | - |
| 1777456862 | 9.44° C | 79% | 1013.4 hPa | 0 mm | - | - | - |
| 1777456551 | 9.44° C | 79% | 1013.4 hPa | 0 mm | - | - | - |
| 1777455955 | 9.44° C | 77% | 1013.4 hPa | 0 mm | - | - | - |
| 1777455055 | 10° C | 76% | 1013.3 hPa | 0 mm | - | - | - |
| 1777453263 | 10.56° C | 71% | 1013.2 hPa | 0 mm | - | - | - |
| 1777451455 | 11.11° C | 67% | 1013.3 hPa | 0 mm | - | - | - |
| 1777448152 | 11.11° C | 63% | 1013.3 hPa | 0 mm | - | - | - |
| 1777447257 | 11.11° C | 65% | 1013.3 hPa | 0 mm | - | - | - |
| 1777446964 | 11.11° C | 66% | 1013.2 hPa | 0 mm | - | - | - |
| 1777446656 | 11.11° C | 67% | 1013.3 hPa | 0 mm | - | - | - |
| 1777446061 | 11.11° C | 67% | 1013.2 hPa | 0 mm | - | - | - |
| 1777445455 | 11.11° C | 68% | 1013.2 hPa | 0 mm | - | - | - |
| 1777444259 | 11.11° C | 70% | 1013 hPa | 0 mm | - | - | - |
| 1777442464 | 10.56° C | 68% | 1013.4 hPa | 0 mm | - | - | - |
| 1777440956 | 11.11° C | 66% | 1013.3 hPa | 0 mm | - | - | - |
| 1777438255 | 11.67° C | 63% | 1013.3 hPa | 0 mm | - | - | - |
| 1777436158 | 12.22° C | 61% | 1013.8 hPa | 0 mm | - | - | - |
* Rain latest hour (hover to see other rain measurements)
** Current wind speed in m/s (hover to see current wind gust speed)